| time (UTC) | temp F | wind direction | speed MPH | gust MPH | rain 1hr in | rain 24hr in | rain mn in | humidity % | barometer mb |
| 20260506144845 | 42 | 355 | 2.0 | 8.0 | 0.05 | 0.57 | 0.40 | 99 | 1007.6 |
| 20260506143845 | 43 | 331 | 5.0 | 8.0 | 0.05 | 0.56 | 0.39 | 99 | 1007.8 |
| 20260506142845 | 42 | 350 | 4.0 | 8.0 | 0.05 | 0.55 | 0.38 | 99 | 1007.6 |
| 20260506141844 | 42 | 5 | 4.0 | 10.0 | 0.06 | 0.55 | 0.38 | 99 | 1007.6 |
| 20260506140844 | 43 | 355 | 6.0 | 8.0 | 0.07 | 0.54 | 0.37 | 99 | 1007.7 |
| 20260506135844 | 43 | 5 | 4.0 | 8.0 | 0.07 | 0.53 | 0.36 | 99 | 1007.9 |
| 20260506134844 | 43 | 360 | 5.0 | 11.0 | 0.08 | 0.52 | 0.35 | 99 | 1007.7 |
| 20260506133844 | 43 | 15 | 3.0 | 8.0 | 0.09 | 0.51 | 0.34 | 99 | 1007.8 |
| 20260506132844 | 43 | 14 | 7.0 | 8.0 | 0.09 | 0.50 | 0.33 | 99 | 1008.0 |
| 20260506131843 | 43 | 355 | 3.0 | 9.0 | 0.10 | 0.49 | 0.32 | 99 | 1007.9 |
| 20260506130843 | 43 | 351 | 4.0 | 8.0 | 0.09 | 0.47 | 0.30 | 99 | 1007.9 |
| 20260506125843 | 43 | 341 | 3.0 | 7.0 | 0.09 | 0.46 | 0.29 | 99 | 1008.0 |
| 20260506124843 | 43 | 360 | 4.0 | 5.0 | 0.08 | 0.44 | 0.27 | 99 | 1007.8 |
| 20260506123843 | 43 | 11 | 3.0 | 6.0 | 0.07 | 0.42 | 0.25 | 99 | 1007.7 |
| 20260506122842 | 43 | 341 | 2.0 | 6.0 | 0.07 | 0.41 | 0.24 | 99 | 1007.8 |
| 20260506121842 | 43 | 346 | 2.0 | 6.0 | 0.06 | 0.39 | 0.22 | 99 | 1007.9 |
| 20260506120842 | 43 | 5 | 5.0 | 7.0 | 0.08 | 0.38 | 0.21 | 99 | 1008.0 |
| 20260506113841 | 43 | 355 | 4.0 | 6.0 | 0.09 | 0.35 | 0.18 | 99 | 1007.8 |
| 20260506112841 | 43 | 355 | 5.0 | 6.0 | 0.08 | 0.34 | 0.17 | 99 | 1008.0 |
| 20260506110841 | 43 | 9 | 3.0 | 5.0 | 0.07 | 0.30 | 0.13 | 99 | 1008.0 |
| 20260506105841 | 43 | 360 | 2.0 | 5.0 | 0.07 | 0.29 | 0.12 | 99 | 1008.7 |
| 20260506104840 | 43 | 340 | 3.0 | 5.0 | 0.05 | 0.27 | 0.10 | 99 | 1008.5 |
| 20260506103840 | 43 | 5 | 3.0 | 5.0 | 0.05 | 0.26 | 0.09 | 99 | 1008.6 |
| 20260506102840 | 43 | 15 | 1.0 | 5.0 | 0.05 | 0.26 | 0.09 | 99 | 1008.6 |
| 20260506101840 | 43 | 12 | 2.0 | 10.0 | 0.04 | 0.25 | 0.07 | 99 | 1008.5 |
| 20260506100840 | 43 | 5 | 8.0 | 9.0 | 0.04 | 0.24 | 0.06 | 99 | 1008.6 |
| 20260506095840 | 43 | 24 | 4.0 | 13.0 | 0.03 | 0.23 | 0.05 | 98 | 1009.0 |
| 20260506094840 | 44 | 9 | 9.0 | 15.0 | 0.04 | 0.23 | 0.05 | 98 | 1009.1 |
| 20260506092839 | 45 | 331 | 6.0 | 12.0 | 0.04 | 0.22 | 0.04 | 99 | 1009.3 |
| 20260506091909 | 45 | 342 | 6.0 | 11.0 | 0.03 | 0.21 | 0.03 | 99 | 1009.4 |
| 20260506090839 | 45 | 346 | 8.0 | 11.0 | 0.02 | 0.20 | 0.02 | 99 | 1009.1 |
| 20260506085839 | 45 | 9 | 9.0 | 13.0 | 0.02 | 0.20 | 0.02 | 99 | 1009.0 |
| 20260506084908 | 45 | 355 | 4.0 | 11.0 | 0.01 | 0.19 | 0.01 | 99 | 1009.3 |
| 20260506083838 | 45 | 337 | 6.0 | 12.0 | 0.01 | 0.19 | 0.01 | 99 | 1009.4 |
| 20260506082838 | 46 | 30 | 2.0 | 9.0 | 0.00 | 0.18 | 0.00 | 99 | 1009.0 |
| 20260506081838 | 46 | 316 | 5.0 | 7.0 | 0.00 | 0.18 | 0.00 | 99 | 1009.1 |
| 20260506071837 | 46 | 70 | 0.0 | 3.0 | 0.00 | 0.21 | 0.00 | 99 | 1008.9 |
| 20260506070907 | 46 | 70 | 2.0 | 9.0 | 0.00 | 0.21 | 0.00 | 99 | 1008.9 |
| 20260506061906 | 47 | 81 | 9.0 | 13.0 | 0.00 | 0.24 | 0.00 | 98 | 1010.2 |
| 20260506050905 | 47 | 5 | 2.0 | 4.0 | 0.00 | 0.24 | 0.00 | 98 | 1011.1 |
| 20260506044904 | 47 | 40 | 1.0 | 3.0 | 0.00 | 0.24 | 0.00 | 98 | 1011.0 |
| 20260506043904 | 47 | 16 | 1.0 | 8.0 | 0.00 | 0.24 | 0.00 | 98 | 1011.0 |
| 20260506042904 | 47 | 22 | 1.0 | 4.0 | 0.00 | 0.24 | 0.00 | 98 | 1010.9 |
| 20260506041904 | 47 | 355 | 0.0 | 4.0 | 0.00 | 0.24 | 0.00 | 97 | 1011.1 |
| 20260506040904 | 47 | 5 | 4.0 | 4.0 | 0.00 | 0.24 | 0.00 | 97 | 1011.2 |
| 20260506035904 | 47 | 10 | 2.0 | 5.0 | 0.01 | 0.24 | 0.24 | 97 | 1011.3 |
| 20260506034904 | 47 | 10 | 0.0 | 3.0 | 0.03 | 0.24 | 0.24 | 97 | 1011.2 |
| 20260506033903 | 47 | 37 | 0.0 | 3.0 | 0.05 | 0.24 | 0.24 | 97 | 1011.5 |
| 20260506032903 | 47 | 37 | 2.0 | 4.0 | 0.06 | 0.24 | 0.24 | 96 | 1011.5 |
| 20260506031903 | 47 | 360 | 1.0 | 4.0 | 0.06 | 0.24 | 0.24 | 96 | 1011.7 |
| 20260506030903 | 47 | 93 | 2.0 | 8.0 | 0.06 | 0.24 | 0.24 | 96 | 1012.1 |
| 20260506025903 | 47 | 355 | 6.0 | 8.0 | 0.05 | 0.23 | 0.23 | 95 | 1011.4 |
| 20260506024903 | 47 | 78 | 0.0 | 3.0 | 0.03 | 0.21 | 0.21 | 95 | 1011.7 |
| 20260506023903 | 47 | 53 | 1.0 | 5.0 | 0.01 | 0.19 | 0.19 | 94 | 1011.8 |
| 20260506021902 | 47 | 26 | 0.0 | 9.0 | 0.00 | 0.18 | 0.18 | 93 | 1011.5 |
| 20260506020902 | 48 | 333 | 8.0 | 10.0 | 0.00 | 0.18 | 0.18 | 92 | 1011.5 |
| 20260506015902 | 48 | 5 | 10.0 | 12.0 | 0.00 | 0.18 | 0.18 | 90 | 1010.8 |
| 20260506014902 | 48 | 5 | 10.0 | 12.0 | 0.00 | 0.18 | 0.18 | 89 | 1010.9 |
| 20260506011901 | 51 | 323 | 8.0 | 11.0 | 0.00 | 0.18 | 0.18 | 85 | 1010.9 |
| 20260506010901 | 52 | 326 | 5.0 | 9.0 | 0.00 | 0.18 | 0.18 | 86 | 1011.0 |
| 20260506005901 | 52 | 344 | 8.0 | 10.0 | 0.01 | 0.18 | 0.18 | 86 | 1010.6 |
| 20260506004901 | 52 | 338 | 6.0 | 8.0 | 0.01 | 0.18 | 0.18 | 87 | 1010.7 |
| 20260506003900 | 53 | 349 | 6.0 | 9.0 | 0.01 | 0.18 | 0.18 | 87 | 1010.5 |
| 20260506001900 | 54 | 16 | 3.0 | 7.0 | 0.03 | 0.18 | 0.18 | 88 | 1010.3 |
| 20260506000900 | 54 | 22 | 5.0 | 9.0 | 0.03 | 0.18 | 0.18 | 86 | 1010.2 |
| 20260505235900 | 55 | 306 | 7.0 | 14.0 | 0.02 | 0.17 | 0.17 | 86 | 1010.4 |
| 20260505234900 | 57 | 319 | 6.0 | 15.0 | 0.02 | 0.17 | 0.17 | 87 | 1010.2 |
| 20260505233859 | 58 | 339 | 8.0 | 12.0 | 0.02 | 0.17 | 0.17 | 88 | 1009.7 |
| 20260505232900 | 59 | 331 | 11.0 | 13.0 | 0.00 | 0.15 | 0.15 | 86 | 1009.2 |
| 20260505231859 | 60 | 327 | 13.0 | 13.0 | 0.00 | 0.15 | 0.15 | 87 | 1008.6 |
| 20260505230859 | 61 | 339 | 9.0 | 13.0 | 0.00 | 0.15 | 0.15 | 88 | 1008.3 |
| 20260505225859 | 63 | 303 | 1.0 | 4.0 | 0.00 | 0.15 | 0.15 | 88 | 1008.2 |
| 20260505224859 | 64 | 302 | 0.0 | 0.0 | 0.00 | 0.15 | 0.15 | 87 | 1008.3 |
| 20260505223858 | 64 | 302 | 0.0 | 2.0 | 0.00 | 0.15 | 0.15 | 85 | 1008.4 |
| 20260505222859 | 65 | 304 | 2.0 | 4.0 | 0.00 | 0.15 | 0.15 | 82 | 1008.2 |
| 20260505221858 | 66 | 107 | 0.0 | 2.0 | 0.00 | 0.15 | 0.15 | 84 | 1008.2 |
| 20260505220858 | 66 | 128 | 1.0 | 2.0 | 0.00 | 0.15 | 0.15 | 86 | 1008.1 |
| 20260505215858 | 65 | 32 | 2.0 | 3.0 | 0.00 | 0.15 | 0.15 | 87 | 1007.7 |
| 20260505213858 | 64 | 347 | 2.0 | 10.0 | 0.00 | 0.15 | 0.15 | 86 | 1007.6 |
| 20260505212858 | 64 | 221 | 5.0 | 9.0 | 0.01 | 0.15 | 0.15 | 87 | 1007.5 |
| 20260505211857 | 64 | 194 | 9.0 | 13.0 | 0.01 | 0.15 | 0.15 | 88 | 1007.2 |
| 20260505210857 | 63 | 185 | 8.0 | 10.0 | 0.01 | 0.15 | 0.15 | 90 | 1007.0 |
| 20260505205857 | 62 | 187 | 4.0 | 7.0 | 0.01 | 0.15 | 0.15 | 90 | 1006.9 |
| 20260505204857 | 62 | 192 | 6.0 | 9.0 | 0.01 | 0.15 | 0.15 | 90 | 1007.0 |
| 20260505202856 | 63 | 197 | 10.0 | 19.0 | 0.00 | 0.14 | 0.14 | 86 | 1007.5 |
| 20260505201856 | 64 | 190 | 11.0 | 14.0 | 0.00 | 0.14 | 0.14 | 85 | 1007.7 |
| 20260505195856 | 62 | 165 | 10.0 | 13.0 | 0.00 | 0.14 | 0.14 | 90 | 1007.2 |
| 20260505194856 | 62 | 145 | 6.0 | 10.0 | 0.00 | 0.14 | 0.14 | 91 | 1007.3 |
| 20260505193855 | 61 | 117 | 3.0 | 8.0 | 0.00 | 0.14 | 0.14 | 93 | 1007.2 |
| 20260505192855 | 61 | 128 | 7.0 | 7.0 | 0.05 | 0.14 | 0.14 | 93 | 1007.3 |
| 20260505191855 | 61 | 103 | 3.0 | 4.0 | 0.07 | 0.14 | 0.14 | 93 | 1007.3 |
| 20260505190855 | 60 | 146 | 0.0 | 8.0 | 0.07 | 0.14 | 0.14 | 93 | 1007.6 |
| 20260505185855 | 60 | 134 | 7.0 | 8.0 | 0.07 | 0.14 | 0.14 | 92 | 1007.3 |
| 20260505184854 | 60 | 275 | 6.0 | 8.0 | 0.07 | 0.14 | 0.14 | 91 | 1007.5 |
| 20260505183854 | 60 | 53 | 1.0 | 26.0 | 0.07 | 0.14 | 0.14 | 87 | 1006.9 |
| 20260505182854 | 66 | 327 | 11.0 | 42.0 | 0.02 | 0.09 | 0.09 | 72 | 1008.1 |
| 20260505180854 | 70 | 198 | 9.0 | 19.0 | 0.00 | 0.07 | 0.07 | 63 | 1006.3 |
| 20260505175854 | 70 | 208 | 11.0 | 20.0 | 0.00 | 0.07 | 0.07 | 64 | 1006.8 |
| 20260505174854 | 68 | 195 | 13.0 | 20.0 | 0.00 | 0.07 | 0.07 | 69 | 1006.8 |
| 20260505173853 | 66 | 176 | 14.0 | 33.0 | 0.00 | 0.07 | 0.07 | 72 | 1007.0 |
| 20260505171853 | 71 | 178 | 8.0 | 21.0 | 0.00 | 0.07 | 0.07 | 58 | 1007.2 |
| 20260505170853 | 71 | 183 | 7.0 | 24.0 | 0.00 | 0.07 | 0.07 | 57 | 1007.3 |
| 20260505165852 | 71 | 210 | 16.0 | 23.0 | 0.00 | 0.07 | 0.07 | 58 | 1007.1 |
| 20260505164852 | 71 | 219 | 14.0 | 27.0 | 0.00 | 0.07 | 0.07 | 56 | 1006.9 |
| 20260505163852 | 72 | 260 | 9.0 | 20.0 | 0.00 | 0.07 | 0.07 | 57 | 1006.8 |
| 20260505162852 | 71 | 222 | 7.0 | 22.0 | 0.00 | 0.07 | 0.07 | 60 | 1006.5 |
| 20260505161852 | 71 | 229 | 6.0 | 21.0 | 0.00 | 0.07 | 0.07 | 58 | 1006.5 |
| 20260505160852 | 71 | 312 | 10.0 | 24.0 | 0.00 | 0.07 | 0.07 | 58 | 1006.6 |
| 20260505152851 | 72 | 221 | 19.0 | 26.0 | 0.00 | 0.07 | 0.07 | 58 | 1007.2 |
| 20260505150851 | 71 | 190 | 12.0 | 30.0 | 0.00 | 0.07 | 0.07 | 60 | 1007.1 |